Greenville Downtown, SC

8:38 PM EDT on May 28, 2017 (GMT -0400)
Greenville Downtown

Weather History for KGMU - December, 2012

Change the Weather History Date:

Tuesday, December 11, 2012

  Actual Average Record
Temperature  
Mean Temperature 52 °F -  
Max Temperature 60 °F 52 °F 75 °F (2007)
Min Temperature 45 °F 35 °F 28 °F (2013)
Degree Days  
Heating Degree Days 12    
Growing Degree Days 2 (Base 50)    
Moisture  
Dew Point 39 °F    
Average Humidity 66    
Maximum Humidity 90    
Minimum Humidity 47    
Precipitation  
Precipitation 0.00 in - - ()
Sea Level Pressure  
Sea Level Pressure 29.94 in    
Wind  
Wind Speed 8 mph (North)    
Max Wind Speed 14 mph    
Max Gust Speed 21 mph    
Visibility 10 miles    
Events      
Averages and records for this station are not official NWS values.
T = Trace of Precipitation, MM = Missing Value Source: NWS Daily Summary

Daily Weather History Graph

Daily Weather History Graph

Search for Another Location

Airport or City:

Trip Planner

Search our weather history database for the weather conditions in past years. The results will help you decide how hot, cold, wet, or windy it might be!

Date:

Astronomy

Dec. 11, 2012 Rise Set
Actual Time 7:27 AM EST 5:18 PM EST
Civil Twilight 6:59 AM EST 5:46 PM EST
Nautical Twilight 6:27 AM EST 6:18 PM EST
Astronomical Twilight 5:56 AM EST 6:48 PM EST
Moon 5:22 AM EST (12/11) 3:54 PM EST (12/11)
Length of Visible Light 10h 47m
Length of Day
9h 51m
Waning Crescent, 4% of the Moon is Illuminated
Dec 11
Waning Crescent
Dec 13
New
Dec 20
First Quarter
Dec 28
Full
Jan 4
Last Quarter

Hourly Weather History & Observations

Time (EST) Temp. Windchill Dew Point Humidity Pressure Visibility Wind Dir Wind Speed Gust Speed Precip Events Conditions
12:31 AM 60.8 °F - 57.2 °F 88% 29.76 in 10.0 mi SW 9.2 mph 16.1 mph N/A   Overcast
12:53 AM 60.1 °F - 57.0 °F 90% 29.75 in 10.0 mi WSW 13.8 mph 20.7 mph N/A   Overcast
1:19 AM 59.0 °F - 55.4 °F 88% 29.76 in 10.0 mi WSW 13.8 mph - N/A   Mostly Cloudy
1:53 AM 57.9 °F - 52.0 °F 81% 29.74 in 10.0 mi West 11.5 mph - N/A   Clear
2:53 AM 55.9 °F - 48.0 °F 75% 29.77 in 10.0 mi WSW 9.2 mph - N/A   Scattered Clouds
3:53 AM 54.0 °F - 45.0 °F 72% 29.78 in 10.0 mi WSW 6.9 mph - N/A   Clear
4:53 AM 52.0 °F - 44.1 °F 74% 29.80 in 10.0 mi Calm Calm - N/A   Clear
5:53 AM 50.0 °F - 44.1 °F 80% 29.85 in 10.0 mi WSW 3.5 mph - N/A   Clear
6:53 AM 45.0 °F 41.2 °F 39.0 °F 80% 29.88 in 10.0 mi North 6.9 mph - N/A   Clear
7:30 AM 46.4 °F 43.5 °F 37.4 °F 71% 29.91 in 10.0 mi North 5.8 mph - N/A   Mostly Cloudy
7:53 AM 46.9 °F - 39.0 °F 74% 29.91 in 10.0 mi North 5.8 mph - N/A   Overcast
8:23 AM 46.4 °F 42.9 °F 37.4 °F 71% 29.93 in 10.0 mi North 6.9 mph - N/A   Overcast
8:53 AM 46.9 °F - 36.0 °F 66% 29.94 in 10.0 mi North 5.8 mph - N/A   Mostly Cloudy
9:09 AM 46.4 °F 42.4 °F 35.6 °F 66% 29.95 in 10.0 mi North 8.1 mph - N/A   Scattered Clouds
9:53 AM 50.0 °F - 37.0 °F 61% 29.96 in 10.0 mi North 4.6 mph - N/A   Clear
10:53 AM 51.1 °F - 37.0 °F 59% 29.97 in 10.0 mi North 5.8 mph - N/A   Clear
11:53 AM 53.1 °F - 36.0 °F 52% 29.96 in 10.0 mi North 5.8 mph - N/A   Clear
12:53 PM 54.0 °F - 35.1 °F 49% 29.96 in 10.0 mi Calm Calm - N/A   Clear
1:53 PM 55.0 °F - 35.1 °F 47% 29.96 in 10.0 mi Calm Calm - N/A   Clear
2:53 PM 55.0 °F - 37.0 °F 51% 29.97 in 10.0 mi ENE 4.6 mph - N/A   Clear
3:53 PM 54.0 °F - 36.0 °F 51% 30.00 in 10.0 mi North 10.4 mph - N/A   Scattered Clouds
4:53 PM 50.0 °F - 34.0 °F 54% 30.03 in 10.0 mi North 11.5 mph - N/A   Clear
5:53 PM 48.0 °F - 33.1 °F 56% 30.04 in 10.0 mi North 10.4 mph - N/A   Clear
6:53 PM 46.0 °F 40.2 °F 32.0 °F 58% 30.06 in 10.0 mi North 12.7 mph - N/A   Clear
7:53 PM 46.0 °F 40.6 °F 32.0 °F 58% 30.06 in 10.0 mi NNE 11.5 mph - N/A   Clear
8:53 PM 45.0 °F 39.3 °F 32.0 °F 60% 30.09 in 10.0 mi North 11.5 mph - N/A   Clear
9:53 PM 45.0 °F 39.7 °F 32.0 °F 60% 30.11 in 10.0 mi NNE 10.4 mph - N/A   Clear
10:53 PM 45.0 °F 40.1 °F 33.1 °F 63% 30.12 in 10.0 mi NNE 9.2 mph - N/A   Clear
11:53 PM 45.0 °F 39.3 °F 33.1 °F 63% 30.14 in 10.0 mi NE 11.5 mph - N/A   Partly Cloudy